Tracking 20942 objects as of 10-Jul-2020
HD Live streaming from Space Station
objects crossing your sky now

COSMOS 2112

Track COSMOS 2112 now!
10-day predictions
COSMOS 2112 is classified as:


NORAD ID: 21014
Int'l Code: 1990-111A
Perigee: 767.0 km
Apogee: 808.1 km
Inclination: 74.0 °
Period: 100.5 minutes
Semi major axis: 7158 km
RCS: 2.2033 m2 (large)
Launch date: December 10, 1990
Source: Commonwealth of Independent States (former USSR) (CIS)
Launch site: PLESETSK MISSILE AND SPACE COMPLEX (PKMTR)
aabbcc
Your satellite tracking list
Your tracking list is empty




NASA's NSSDC Master Catalog

Two Line Element Set (TLE):
1 21014U 90111A   20192.08194470  .00000010  00000-0  13048-4 0  9998
2 21014  74.0486 307.6785 0028712 309.3476  50.5131 14.33386342546802
Source of the keplerian elements: AFSPC